CAPE
0 0 0 0 0 0 0 0 0 0 0 0 0 0 0 0 0 0 0 0 0 0 0 0 0 0 0 0 156 522 829 856 795 795 886 638 613 566 466 410 511 466 408 565
0 0 0 0 0 0 0 0 0 0 0 0 0 0 0 0 0 0 0 0 0 0 0 0 0 0 0 4 102 358 882 906 819 1099 1162 1077 758 555 492 453 561 630 563 549
0 0 0 0 0 0 0 0 0 0 0 0 0 0 0 0 0 0 0 0 0 0 0 0 0 0 0 0 21 305 824 1187 1203 1120 746 498 550 577 529 703 767 733 772 839
0 0 0 0 0 0 0 0 0 0 0 0 0 0 0 0 0 0 0 0 0 0 0 0 0 0 0 0 0 95 572 853 1015 1106 1049 881 897 708 796 838 891 709 632 827
0 0 0 0 0 0 0 0 0 0 0 0 0 0 0 0 0 0 0 0 0 0 0 0 0 0 0 0 0 6 212 185 285 877 1205 1031 611 471 234 323 425 383 539 441
0 0 0 0 0 0 0 0 0 0 0 0 0 0 0 0 0 0 0 0 0 0 0 0 0 0 0 0 0 0 0 0 0 0 34 480 618 439 331 200 267 176 199 256
0 0 0 0 0 0 0 0 0 0 0 0 0 0 0 0 0 0 0 0 0 0 0 0 0 0 0 0 0 0 0 0 0 0 0 0 0 0 2 14 35 59 141 234
0 0 0 0 0 0 0 0 0 0 0 0 0 0 0 0 0 0 0 0 0 0 0 0 0 0 0 0 0 0 0 0 0 0 0 0 0 0 0 0 0 0 7 48
0 0 0 0 0 0 0 0 0 19 0 6 0 0 0 0 0 0 0 0 0 0 0 0 0 0 0 0 0 0 0 0 0 0 0 0 0 0 0 0 0 0 0 0
0 0 0 0 0 1 10 4 22 31 30 23 0 0 0 0 0 0 0 0 0 0 0 0 0 0 0 0 0 0 0 0 0 0 0 0 0 0 0 0 0 0 0 0
0 0 0 0 0 0 0 4 21 28 23 35 22 0 0 0 0 0 0 0 0 0 0 0 0 0 0 0 0 0 0 0 0 0 0 0 0 0 0 0 0 0 0 0
0 0 0 0 0 0 0 0 0 0 2 4 35 0 1 0 0 0 0 0 0 0 0 0 0 0 0 0 0 0 0 0 0 0 0 0 0 0 0 0 0 0 0 0
0 0 0 0 0 0 0 0 0 0 0 1 5 0 0 0 0 0 0 0 0 0 0 0 0 0 0 0 0 0 0 0 0 0 0 0 0 0 0 0 0 0 0 0
0 0 0 0 0 0 0 0 0 0 0 0 0 0 0 0 0 0 0 0 0 0 0 0 0 0 0 0 0 0 0 0 0 0 0 0 0 0 0 0 0 0 0 0
0 0 0 0 0 0 0 0 0 0 0 0 0 0 0 0 0 0 0 0 0 0 0 0 0 0 0 0 0 0 0 0 0 0 0 0 0 0 0 0 0 0 0 0
0 0 0 0 0 0 0 0 0 0 0 0 0 0 0 0 0 0 0 0 0 0 0 0 0 0 0 0 0 0 0 0 0 0 0 0 0 0 0 0 0 0 0 0
0 0 0 0 0 0 0 0 0 0 0 0 1 0 0 0 0 0 0 0 0 0 0 0 0 0 0 0 0 0 0 0 0 0 0 0 0 0 0 0 0 0 0 0
0 0 0 0 0 0 0 0 0 0 0 0 0 0 0 0 0 0 0 0 0 0 0 0 0 0 0 0 0 0 0 0 0 0 0 0 0 0 0 0 0 0 0 0
0 0 0 0 0 0 0 0 0 0 0 0 0 0 0 0 0 0 0 0 0 0 0 0 0 0 0 0 0 0 0 0 0 0 0 0 0 0 0 0 0 0 0 0
0 0 0 0 0 0 0 0 0 0 0 0 0 0 0 0 1 0 0 0 4 4 1 4 0 0 2 6 2 0 0 0 0 0 0 0 0 0 0 0 0 0 0 0
0 0 0 0 0 0 0 0 0 0 0 0 0 0 0 2 1 1 5 19 26 23 14 5 7 19 23 35 37 17 1 0 0 0 0 0 0 0 0 0 0 0 0 0
0 0 0 0 0 0 0 0 0 0 0 0 0 0 2 2 4 16 25 31 7 27 19 27 31 27 24 28 36 33 21 13 8 3 0 0 0 0 0 0 0 0 0 0
0 0 0 0 0 0 0 0 0 0 0 0 4 4 8 11 13 26 23 16 26 20 18 20 23 24 19 21 24 22 19 36 35 27 7 3 2 0 1 0 0 0 0 0
8 0 1 0 0 0 0 0 0 0 0 0 3 9 9 13 27 19 28 20 8 9 10 12 8 9 9 8 14 16 18 18 32 42 28 20 15 10 7 4 1 0 0 0
0 0 0 0 0 0 0 0 0 2 0 3 2 2 6 31 25 15 15 17 5 4 6 7 6 5 4 3 5 6 5 20 21 46 13 3 32 11 3 3 13 0 0 0
0 0 0 0 0 0 0 2 6 5 1 4 3 3 9 26 14 12 14 9 3 1 2 3 4 3 4 9 11 8 0 17 27 29 8 40 17 23 21 23 15 1 1 0
CIN
0 0 0 0 0 0 0 0 0 0 0 0 0 0 0 0 0 0 0 0 0 0 0 0 0 0 0 0 -628 -541 -460 -464 -448 -397 -294 -316 -313 -314 -297 -327 -372 -384 -397 -318
0 0 0 0 0 0 0 0 0 0 0 0 0 0 0 0 0 0 0 0 0 0 0 0 0 0 0 -600 -642 -596 -458 -461 -431 -310 -257 -228 -316 -335 -325 -328 -288 -270 -394 -379
0 0 0 0 0 0 0 0 0 0 0 0 0 0 0 0 0 0 0 0 0 0 0 0 0 0 0 -157 -733 -609 -494 -398 -365 -330 -387 -388 -343 -320 -235 -255 -266 -285 -282 -269
0 0 0 0 0 0 0 0 0 0 0 0 0 0 0 0 0 0 0 0 0 0 0 0 0 0 0 0 0 -716 -516 -435 -384 -331 -286 -287 -275 -259 -228 -259 -256 -280 -287 -181
0 0 0 0 0 0 0 0 0 0 0 0 0 0 0 0 0 0 0 0 0 0 0 0 0 0 0 0 0 -735 -608 -595 -550 -385 -287 -269 -285 -316 -394 -356 -302 -289 -238 -237
0 0 0 0 0 0 0 0 0 0 0 0 0 0 0 0 0 0 0 0 0 0 0 0 0 0 0 0 0 0 0 0 0 0 -423 -416 -339 -373 -343 -351 -298 -309 -301 -262
0 0 0 0 0 0 0 0 0 0 0 0 0 0 0 0 0 0 0 0 0 0 0 0 0 0 0 0 0 0 0 0 0 0 0 0 0 0 -67 -329 -395 -372 -325 -288
0 0 0 0 0 0 0 0 -2 -4 0 0 0 0 0 0 0 0 0 0 0 0 0 0 0 0 0 0 0 0 0 0 0 0 0 0 0 0 0 0 0 0 -197 -346
0 0 0 0 0 0 0 0 0 -22 0 0 0 0 0 0 0 0 0 0 0 0 0 0 0 0 0 0 0 0 0 0 0 0 0 0 0 0 0 0 0 0 0 0
0 0 0 0 0 -15 -27 -28 -8 -8 -3 -1 0 0 0 0 0 0 0 0 0 0 0 0 0 0 0 0 0 0 0 0 0 0 0 0 0 0 0 0 0 0 0 0
0 0 0 0 0 0 0 -9 -24 -5 -11 0 -2 0 0 0 0 0 0 0 0 0 0 0 0 0 0 0 0 0 0 0 0 0 0 0 0 0 0 0 0 0 0 0
0 0 0 0 0 0 0 0 -1 0 -6 -1 0 0 -7 0 0 0 0 0 0 0 0 0 0 0 0 0 0 0 0 0 0 0 0 0 0 0 0 0 0 0 0 0
0 0 0 0 0 0 0 0 0 0 0 -1 -3 0 0 0 0 0 0 0 0 0 0 0 0 0 0 0 0 0 0 0 0 0 0 0 0 0 0 0 0 0 0 0
0 0 0 0 0 0 0 0 0 0 0 0 0 0 0 0 0 0 0 0 0 0 0 0 0 0 0 0 0 0 0 0 0 0 0 0 0 0 0 0 0 0 0 0
0 0 0 0 0 0 0 0 0 0 0 0 0 0 0 0 0 0 0 0 0 0 0 0 0 0 0 0 0 0 0 0 0 0 0 0 0 0 0 0 0 0 0 0
0 0 0 0 0 0 0 0 0 0 -1 0 0 0 0 0 0 0 0 0 0 0 0 0 0 0 0 0 0 0 0 0 0 0 0 0 0 0 0 0 0 0 0 0
0 0 0 0 0 0 0 0 0 0 0 0 0 0 0 0 0 0 0 0 0 0 0 0 0 0 0 0 0 0 0 0 0 0 0 0 0 0 0 0 0 0 0 0
0 0 0 0 0 0 0 0 0 0 0 0 0 0 0 0 0 0 0 0 0 0 0 0 0 0 0 0 0 0 0 0 0 0 0 0 0 0 0 0 0 0 0 0
0 0 0 0 0 0 0 0 -1 0 0 0 0 0 0 0 0 0 0 0 0 0 0 0 0 0 0 0 0 0 0 0 0 0 0 0 0 0 0 0 0 0 0 0
0 0 0 0 0 0 0 0 0 0 0 0 0 0 0 0 0 0 0 -1 0 -1 -2 0 0 0 -1 -1 0 0 0 0 0 0 0 0 0 0 0 0 0 0 0 0
0 0 0 0 0 0 0 0 0 0 0 0 0 0 0 0 0 0 0 0 0 0 -1 -3 0 -1 -1 0 0 -2 -3 0 0 0 0 0 0 0 0 0 0 0 0 0
0 0 0 0 0 0 0 0 0 0 0 0 0 0 0 0 0 0 0 0 0 0 0 0 0 0 0 0 0 0 0 0 0 0 0 0 0 0 0 0 0 0 0 0
0 0 0 0 0 0 0 0 0 0 0 0 0 0 0 0 0 0 0 -1 0 0 0 0 0 0 0 0 0 0 0 0 0 0 -2 -7 -4 0 -4 0 0 0 0 0
-42 0 -7 0 0 0 0 0 0 0 0 0 0 0 0 0 0 0 0 0 0 0 0 0 0 0 0 0 0 0 0 0 0 0 0 -1 0 -3 -3 -8 -1 0 0 0
0 0 0 0 0 0 0 0 -1 -2 -1 -1 0 0 0 0 0 0 0 0 0 0 0 0 0 0 0 0 0 0 0 0 0 0 0 -4 0 -5 -2 -3 -3 0 0 0
0 0 0 0 0 0 0 -4 -7 0 0 0 0 0 0 0 0 0 0 0 0 0 0 0 0 0 0 0 0 0 0 0 0 0 -2 0 -2 -3 -3 -3 -7 -13 -36 0
Wind_Speed
3 3 6 8 7 4 2 2 5 8 15 3 12 17 11 10 7 11 14 8 9 12 17 10 8 8 8 4 7 10 12 10 10 8 10 7 10 9 6 5 10 15 12 11
5 7 9 5 4 5 5 5 8 7 10 5 10 17 9 5 8 8 9 12 10 8 10 10 7 7 10 13 10 8 11 10 10 8 6 3 8 6 6 5 5 7 7 10
7 7 5 5 4 4 5 5 5 7 6 3 5 13 8 5 5 8 9 8 7 9 11 9 7 7 4 9 11 11 11 10 8 7 6 3 4 4 2 3 4 5 5 5
6 5 5 2 6 6 5 5 5 5 3 6 5 18 12 7 9 8 12 8 9 9 7 7 7 6 7 8 4 5 6 8 7 9 8 9 5 4 5 4 3 3 4 5
10 3 3 5 7 5 8 2 4 4 5 3 4 4 11 4 6 7 10 12 10 8 8 10 10 10 9 6 8 6 6 7 7 8 9 8 6 4 3 2 5 3 3 3
6 1 4 6 2 2 1 1 3 2 2 8 11 10 20 16 8 5 5 6 8 9 8 11 12 9 7 5 7 7 9 7 7 7 7 7 8 7 5 4 4 5 4 5
1 4 1 1 1 1 4 5 6 5 2 11 4 6 18 12 9 7 8 6 8 8 9 9 10 11 10 11 11 8 8 8 8 8 7 6 6 7 7 5 4 5 3 3
3 4 5 2 3 4 2 5 5 10 9 15 6 7 9 5 5 3 3 5 4 8 7 9 9 11 14 14 15 14 11 8 8 8 8 7 7 4 4 5 4 4 4 3
3 4 3 1 2 4 1 2 3 1 4 5 6 7 9 4 6 7 7 8 5 8 8 9 7 3 1 6 10 7 7 7 7 8 7 7 6 6 6 6 5 4 4 3
3 2 2 2 3 3 3 4 1 1 6 6 4 4 6 7 10 11 13 8 10 5 6 6 7 7 4 6 4 2 3 9 10 8 7 8 8 7 6 5 6 6 4 3
3 3 3 1 4 6 1 1 3 2 4 4 4 6 3 4 5 9 9 9 10 8 5 2 4 6 7 6 1 3 4 2 4 4 5 7 8 7 7 6 5 5 5 5
3 5 3 7 4 5 5 5 6 4 4 2 4 7 4 4 7 5 11 12 9 8 9 7 4 2 3 3 2 3 4 6 6 4 4 7 4 5 6 6 7 7 7 6
7 0 2 8 6 4 2 2 4 2 1 6 4 7 4 4 7 6 6 12 13 14 11 9 6 6 4 3 2 3 4 7 6 7 7 6 7 6 7 8 7 6 6 6
8 3 7 7 7 5 5 4 5 6 3 8 12 20 16 8 6 8 9 10 13 13 12 11 11 8 4 5 6 6 5 4 5 7 8 9 8 9 9 7 6 8 7 6
4 4 5 6 7 6 9 10 9 8 13 10 16 15 13 6 6 6 7 10 14 15 16 16 13 9 5 7 6 5 5 5 5 4 4 8 9 8 7 8 8 6 7 6
2 2 2 4 9 8 10 9 9 10 5 6 10 16 4 4 5 7 9 13 16 18 19 16 14 13 7 7 7 5 5 5 5 6 5 4 5 6 9 9 9 8 7 6
3 4 2 5 3 6 7 6 5 3 5 5 8 5 5 6 10 10 14 16 18 18 17 16 15 14 13 9 7 10 9 6 6 6 6 6 5 6 6 7 8 9 9 7
6 5 3 4 5 3 4 2 3 5 10 9 9 6 6 9 12 14 13 18 19 17 16 14 13 16 18 17 13 12 10 9 9 10 9 8 8 8 7 8 9 7 6 8
5 5 1 2 2 8 3 2 1 3 10 3 3 7 13 14 14 17 9 10 16 15 16 20 19 18 20 22 23 18 15 13 13 13 13 12 11 11 10 11 11 9 7 6
4 2 3 2 2 5 4 2 3 1 10 3 7 10 14 13 15 17 16 18 23 23 22 23 19 20 24 24 23 21 19 18 19 17 16 14 14 14 14 13 11 8 8 10
2 0 4 3 4 8 2 5 2 1 5 8 8 13 14 14 14 24 25 25 23 25 23 19 27 25 24 23 24 25 24 27 25 22 19 17 15 15 15 12 11 10 11 8
5 4 3 2 1 8 2 3 1 4 5 10 15 16 19 21 24 23 23 24 27 27 27 26 23 24 25 23 23 28 30 24 24 22 21 19 16 13 12 16 14 12 11 9
1 5 4 7 7 2 2 5 5 3 12 15 17 19 20 21 23 24 27 27 21 27 24 22 21 23 24 22 23 26 27 23 23 21 19 18 15 15 11 14 14 10 10 10
1 2 2 4 1 3 5 2 2 9 13 16 17 19 20 24 26 27 24 24 23 23 24 22 22 23 24 22 23 25 24 22 21 20 21 16 17 16 13 9 10 11 10 10
2 2 1 5 4 8 1 10 12 16 16 17 19 18 21 24 25 28 27 22 23 23 23 20 20 20 23 24 23 23 24 20 18 19 15 12 16 14 13 14 10 9 10 11
4 4 4 5 2 4 7 13 16 16 20 19 19 21 20 23 27 27 23 23 21 21 21 18 19 20 20 15 15 17 12 15 14 11 10 13 9 10 10 10 9 10 12 16
Wind_Direction
13 72 220 223 201 215 255 258 256 266 279 243 271 275 265 264 281 280 285 277 262 255 261 270 231 197 203 196 177 184 180 184 170 171 174 170 185 180 201 228 206 183 182 194
15 255 225 205 179 209 227 256 270 278 261 165 271 275 269 242 246 242 267 292 277 274 281 277 238 190 198 191 199 183 191 170 179 186 186 187 175 185 178 179 202 202 173 185
177 232 97 162 221 211 239 200 246 234 290 280 269 280 297 257 245 282 270 240 279 278 283 281 271 249 208 197 189 188 179 172 168 145 118 75 75 47 261 211 203 200 191 182
230 250 225 229 255 155 266 207 229 272 322 262 143 287 273 253 238 240 264 286 274 289 296 284 281 246 238 226 182 182 164 162 156 154 149 161 173 157 203 182 189 229 164 226
233 191 211 222 228 158 236 329 290 272 263 297 188 263 269 241 252 258 258 259 263 263 272 277 264 244 215 200 208 183 166 167 167 169 171 171 174 155 141 143 142 179 198 234
241 194 168 206 179 210 2 16 302 86 145 260 247 215 274 266 229 244 246 269 307 305 282 254 255 264 237 186 180 190 176 178 168 163 169 172 157 154 158 164 178 197 183 188
305 227 157 117 158 164 70 45 324 312 261 270 6 234 248 310 285 248 264 290 302 291 298 291 249 236 222 193 191 184 188 176 173 157 156 162 160 155 164 167 175 171 177 191
176 319 163 189 201 207 172 159 181 260 273 291 326 246 249 254 281 85 32 296 340 336 314 301 283 231 220 206 188 180 178 172 174 161 165 165 163 162 173 175 173 175 193 216
151 271 299 107 120 117 97 182 185 267 220 263 233 292 310 353 31 8 333 339 343 323 343 342 338 41 87 181 181 182 157 171 185 179 156 165 164 170 185 185 174 171 185 202
198 282 272 336 61 56 168 147 356 280 276 248 268 265 244 342 360 343 334 324 304 308 28 19 2 2 63 101 54 115 209 195 190 174 171 176 177 180 180 167 192 192 183 193
119 127 284 337 182 198 163 168 147 217 243 298 318 292 319 317 274 319 329 329 310 294 308 27 28 15 11 53 130 168 237 306 299 247 189 181 193 186 174 184 190 193 181 190
168 153 229 237 258 243 182 208 143 136 276 272 264 266 248 279 305 344 335 334 333 312 293 303 334 103 335 17 43 319 263 226 226 242 230 227 220 172 182 194 191 187 198 197
181 169 354 344 358 354 111 183 140 128 116 238 245 259 226 334 335 341 325 336 340 338 346 342 317 321 331 291 246 215 222 244 238 183 198 226 203 185 215 204 194 194 186 184
125 143 170 201 227 184 262 223 201 174 213 261 241 277 283 300 312 323 330 330 329 331 330 330 332 342 299 267 295 306 300 257 248 205 195 197 212 204 205 209 193 178 177 168
108 201 197 245 253 247 256 260 257 215 239 240 277 268 281 273 309 300 309 330 326 324 322 320 320 319 325 333 343 339 317 322 317 270 222 227 220 197 191 189 176 185 175 174
20 252 175 270 261 263 268 247 248 248 243 262 266 283 275 332 332 319 310 313 308 305 306 309 308 304 294 299 303 286 289 300 310 303 274 257 255 215 190 187 180 174 187 187
142 145 102 267 324 305 278 214 192 250 243 243 281 271 342 322 326 315 307 298 291 291 290 293 297 298 286 278 256 271 267 246 249 249 263 275 251 216 240 204 192 188 186 187
145 134 147 269 342 255 250 183 206 238 267 270 258 284 303 303 299 296 283 277 280 280 276 274 284 288 288 284 277 271 257 246 242 253 250 250 251 248 212 217 221 206 184 194
161 152 165 200 223 288 303 197 247 337 287 313 314 321 314 311 311 292 264 272 279 276 279 282 278 274 277 275 277 267 258 245 243 245 244 239 235 240 239 225 224 206 190 193
124 26 152 154 189 244 238 160 2 265 282 40 347 306 303 317 301 295 303 294 286 281 276 278 272 285 276 268 261 257 256 258 258 256 249 239 228 223 223 225 224 206 205 206
85 65 192 202 227 284 257 317 311 307 297 302 299 300 299 290 280 291 296 296 289 293 287 291 289 274 273 272 265 258 258 259 259 252 246 236 228 225 226 224 219 208 210 201
176 151 212 164 218 282 15 7 96 259 296 298 306 302 297 292 291 295 301 298 298 298 295 289 284 278 272 265 261 258 256 256 256 247 237 230 225 220 226 229 224 211 202 198
207 189 195 177 221 254 332 227 273 277 298 299 300 300 296 298 300 303 299 296 299 299 293 291 285 283 277 268 255 255 253 250 243 246 232 224 228 217 222 223 215 193 184 206
173 123 175 20 29 309 294 112 335 309 299 300 295 301 307 304 305 304 305 301 306 302 300 298 291 284 281 273 261 250 246 240 238 231 232 224 225 218 217 226 207 196 191 193
229 69 202 268 316 326 117 342 318 308 303 307 309 311 309 304 312 311 307 307 304 303 302 298 293 289 288 286 280 261 228 221 222 224 209 232 224 203 210 214 207 193 197 188
173 178 159 238 200 228 279 310 313 316 317 316 316 311 308 312 310 312 310 308 306 302 302 302 302 298 299 314 323 334 159 192 206 191 199 214 188 194 198 200 194 193 182 188